Wahoo, NE

10:16 AM CST on January 23, 2018 (GMT -0600)
Wahoo Municipal

Weather History for KAHQ - September, 2011

Change the Weather History Date:

Sunday, September 18, 2011

  Actual Average Record
Temperature  
Mean Temperature 62 °F -  
Max Temperature 71 °F 79 °F 93 °F (1972)
Min Temperature 53 °F 52 °F 33 °F (1973)
Degree Days  
Heating Degree Days 3    
Growing Degree Days 12 (Base 50)    
Moisture  
Dew Point 56 °F    
Average Humidity 90    
Maximum Humidity 100    
Minimum Humidity 60    
Precipitation  
Precipitation 0.08 in - - ()
Sea Level Pressure  
Sea Level Pressure 29.98 in    
Wind  
Wind Speed 4 mph (East)    
Max Wind Speed 9 mph    
Max Gust Speed -    
Visibility 6 miles    
Events Rain    
Averages and records for this station are not official NWS values.
T = Trace of Precipitation, MM = Missing Value Source: NWS Daily Summary

Daily Weather History Graph

Daily Weather History Graph

Search for Another Location

Airport or City:

Trip Planner

Search our weather history database for the weather conditions in past years. The results will help you decide how hot, cold, wet, or windy it might be!

Date:

Astronomy

Sep. 18, 2011 Rise Set
Actual Time 7:09 AM CDT 7:30 PM CDT
Civil Twilight 6:41 AM CDT 7:58 PM CDT
Nautical Twilight 6:09 AM CDT 8:30 PM CDT
Astronomical Twilight 5:36 AM CDT 9:03 PM CDT
Moon 10:43 PM CDT (9/18) 1:12 PM CDT (9/18)
Length of Visible Light 13h 16m
Length of Day
12h 21m
Waning Gibbous, 68% of the Moon is Illuminated
Sep 18
Waning Gibbous
Sep 20
Last Quarter
Sep 27
New
Oct 3
First Quarter
Oct 11
Full

Hourly Weather History & Observations

Time (CDT) Temp. Dew Point Humidity Pressure Visibility Wind Dir Wind Speed Gust Speed Precip Events Conditions
12:15 AM 53.6 °F 53.6 °F 100% 30.01 in 0.8 mi SSE 8.1 mph - N/A   Overcast
12:35 AM 53.6 °F 53.6 °F 100% 30.00 in 0.8 mi SE 5.8 mph - N/A   Overcast
12:55 AM 53.6 °F 53.6 °F 100% 30.00 in 0.8 mi ESE 3.5 mph - N/A   Overcast
1:15 AM 55.4 °F 53.6 °F 94% 29.99 in 0.8 mi ESE 4.6 mph - N/A   Overcast
1:35 AM 53.6 °F 53.6 °F 100% 29.99 in 1.0 mi ESE 4.6 mph - N/A   Overcast
1:55 AM 55.4 °F 53.6 °F 94% 29.99 in 1.5 mi ESE 3.5 mph - N/A   Light Drizzle
2:35 AM 55.4 °F 53.6 °F 94% 29.98 in 2.0 mi SE 5.8 mph - 0.01 in   Heavy Drizzle
2:55 AM 55.4 °F 53.6 °F 94% 29.97 in 3.0 mi SE 5.8 mph - 0.02 in   Drizzle
3:15 AM 55.4 °F 53.6 °F 94% 29.96 in 2.5 mi SE 9.2 mph - N/A   Light Drizzle
3:35 AM 55.4 °F 53.6 °F 94% 29.96 in 1.8 mi ESE 6.9 mph - N/A   Overcast
4:15 AM 55.4 °F 53.6 °F 94% 29.97 in 1.2 mi SSE 6.9 mph - 0.01 in Rain Rain
4:35 AM 55.4 °F 53.6 °F 94% 29.97 in 1.2 mi SSE 8.1 mph - 0.01 in   Drizzle
4:55 AM 55.4 °F 53.6 °F 94% 29.97 in 2.0 mi SE 3.5 mph - 0.01 in   Drizzle
5:15 AM 55.4 °F 53.6 °F 94% 29.98 in 2.5 mi SE 3.5 mph - N/A   Drizzle
5:35 AM 55.4 °F 53.6 °F 94% 29.98 in 2.0 mi ESE 3.5 mph - N/A   Drizzle
5:55 AM 55.4 °F 53.6 °F 94% 29.97 in 3.0 mi East 3.5 mph - N/A   Overcast
6:15 AM 55.4 °F 53.6 °F 94% 29.97 in 2.5 mi Calm Calm - N/A   Overcast
6:35 AM 55.4 °F 53.6 °F 94% 29.97 in 2.0 mi Calm Calm - 0.01 in   Overcast
6:55 AM 55.4 °F 53.6 °F 94% 29.97 in 1.8 mi Calm Calm - 0.01 in Rain Rain
7:15 AM 55.4 °F 55.4 °F 100% 29.98 in 1.5 mi Calm Calm - N/A   Heavy Drizzle
7:55 AM 55.4 °F 55.4 °F 100% 29.99 in 1.0 mi Calm Calm - 0.02 in   Heavy Drizzle
8:15 AM 55.4 °F 55.4 °F 100% 29.98 in 1.2 mi Calm Calm - 0.01 in   Drizzle
8:35 AM 55.4 °F 55.4 °F 100% 29.98 in 1.5 mi Calm Calm - 0.01 in   Light Drizzle
8:55 AM 55.4 °F 55.4 °F 100% 29.98 in 4.0 mi Calm Calm - 0.01 in   Overcast
9:15 AM 55.4 °F 55.4 °F 100% 29.99 in 2.0 mi Calm Calm - N/A   Overcast
9:35 AM 55.4 °F 55.4 °F 100% 29.98 in 2.5 mi Calm Calm - N/A   Overcast
10:15 AM 55.4 °F 55.4 °F 100% 30.00 in 5.0 mi Calm Calm - N/A   Overcast
10:35 AM 55.4 °F 55.4 °F 100% 30.00 in 5.0 mi Calm Calm - N/A Rain Light Rain
10:55 AM 57.2 °F 55.4 °F 94% 30.00 in 7.0 mi Calm Calm - N/A   Overcast
11:15 AM 57.2 °F 55.4 °F 94% 30.00 in 10.0 mi NW 3.5 mph - N/A   Overcast
11:35 AM 59.0 °F 57.2 °F 94% 29.99 in 10.0 mi NW 4.6 mph - N/A   Drizzle
11:55 AM 59.0 °F 55.4 °F 88% 29.99 in 10.0 mi WNW 3.5 mph - N/A   Drizzle
12:35 PM 59.0 °F 57.2 °F 94% 29.99 in 10.0 mi NNW 3.5 mph - N/A   Overcast
12:55 PM 60.8 °F 57.2 °F 88% 29.99 in 10.0 mi NW 4.6 mph - N/A   Drizzle
1:15 PM 60.8 °F 57.2 °F 88% 29.99 in 7.0 mi NW 6.9 mph - N/A Rain Rain
1:35 PM 60.8 °F 59.0 °F 94% 29.99 in 10.0 mi NW 8.1 mph - 0.01 in   Overcast
1:55 PM 62.6 °F 59.0 °F 88% 29.98 in 10.0 mi NNW 6.9 mph - 0.01 in   Overcast
2:15 PM 62.6 °F 59.0 °F 88% 29.98 in 10.0 mi North - - N/A   Overcast
2:35 PM 62.6 °F 59.0 °F 88% 29.97 in 10.0 mi NW 5.8 mph - N/A   Overcast
2:55 PM 66.2 °F 59.0 °F 78% 29.97 in 10.0 mi NW 4.6 mph - N/A   Overcast
3:15 PM 68.0 °F 59.0 °F 73% 29.96 in 10.0 mi NNW 3.5 mph - N/A   Mostly Cloudy
3:35 PM 68.0 °F 59.0 °F 73% 29.96 in 10.0 mi WNW 4.6 mph - N/A   Overcast
4:15 PM 69.8 °F 59.0 °F 68% 29.96 in 10.0 mi North 8.1 mph - N/A   Mostly Cloudy
4:35 PM 69.8 °F 59.0 °F 68% 29.96 in 10.0 mi NNW 3.5 mph - N/A   Scattered Clouds
4:55 PM 71.6 °F 57.2 °F 60% 29.96 in 10.0 mi North 5.8 mph - N/A   Scattered Clouds
5:15 PM 69.8 °F 57.2 °F 64% 29.96 in 10.0 mi Calm Calm - N/A   Scattered Clouds
5:35 PM 71.6 °F 59.0 °F 64% 29.96 in 10.0 mi NNE 4.6 mph - N/A   Scattered Clouds
6:15 PM 69.8 °F 59.0 °F 68% 29.96 in 10.0 mi Calm Calm - N/A   Clear
6:35 PM 69.8 °F 59.0 °F 68% 29.97 in 10.0 mi Calm Calm - N/A   Clear
6:55 PM 68.0 °F 59.0 °F 73% 29.97 in 10.0 mi ESE 3.5 mph - N/A   Clear
7:15 PM 64.4 °F 59.0 °F 83% 29.97 in 10.0 mi SSE 3.5 mph - N/A   Scattered Clouds
7:35 PM 62.6 °F 59.0 °F 88% 29.98 in 10.0 mi SE 4.6 mph - N/A   Clear
7:55 PM 60.8 °F 57.2 °F 88% 29.98 in 10.0 mi South 5.8 mph - N/A   Clear
8:15 PM 60.8 °F 57.2 °F 88% 29.99 in 10.0 mi East 8.1 mph - N/A   Clear
8:35 PM 59.0 °F 57.2 °F 94% 30.00 in 10.0 mi SE 3.5 mph - N/A   Clear
9:15 PM 55.4 °F 55.4 °F 100% 30.01 in 7.0 mi Calm Calm - N/A   Clear
9:35 PM 55.4 °F 53.6 °F 94% 30.02 in 7.0 mi Calm Calm - N/A   Clear
9:55 PM 53.6 °F 53.6 °F 100% 30.02 in 4.0 mi Calm Calm - N/A   Clear
10:15 PM 55.4 °F 53.6 °F 94% 30.02 in 1.2 mi Calm Calm - N/A   Mist
10:35 PM 53.6 °F 53.6 °F 100% 30.02 in 1.2 mi Calm Calm - N/A   Mist
10:55 PM 53.6 °F 51.8 °F 94% 30.02 in 0.8 mi Calm Calm - N/A   Scattered Clouds
11:15 PM 51.8 °F 51.8 °F 100% 30.01 in 0.2 mi Calm Calm - N/A Fog Fog
11:35 PM 50.0 °F 50.0 °F 100% 30.02 in 0.5 mi Calm Calm - N/A Fog Fog